Observations for Trim Patrick St
| Time | AQI | Temp °C | Hum % | Pres Pa | CO μg/m³ | H₂S μg/m³ | NO μg/m³ | NO₂ μg/m³ | O₃ μg/m³ | SO₂ μg/m³ | PM1 μg/m³ | PM2.5 μg/m³ | PM10 μg/m³ |
|---|---|---|---|---|---|---|---|---|---|---|---|---|---|
| Saturday 8 August 2026 | |||||||||||||
| 14:33 | 2 | 29.9 | 36 | 69,254 | 0 | 0 | 0.94 | 14.01 | 91.19 | 12.53 | 2 | 7.3 | 8.03 |
| 14:32 | 2 | 29.8 | 36 | 69,250 | 0 | 0 | 0.95 | 12.92 | 71.47 | 12.48 | 2 | 8.1 | 8.91 |
| 14:26 | 2 | 29.6 | 36 | 69,193 | 0 | 0 | 1.01 | 12.23 | 85.91 | 12.4 | 2.86 | 8.08 | 8.89 |
| 14:23 | 2 | 29.5 | 36 | 69,177 | 0 | 0.86 | 1.03 | 11.49 | 81.66 | 12.79 | 2 | 7.3 | 8.03 |
| 14:22 | 2 | 29.5 | 36 | 69,185 | 0 | 6.13 | 1.03 | 18.13 | 90.04 | 13.14 | 2 | 7.3 | 8.03 |
| 14:19 | 2 | 29.5 | 36 | 69,169 | 0 | 1.1 | 1.01 | 12.47 | 90.39 | 13.16 | 3.71 | 8.89 | 9.78 |
| 14:18 | 2 | 29.5 | 36 | 69,177 | 0 | 0 | 1.03 | 12.26 | 90.11 | 12.21 | 2.86 | 8.88 | 9.77 |
| 14:17 | 2 | 29.5 | 36 | 69,185 | 0 | 0 | 1.04 | 10.86 | 79.65 | 13.17 | 2.86 | 8.1 | 8.91 |
| 14:16 | 2 | 29.5 | 36 | 69,195 | 0 | 1.34 | 0.99 | 12.29 | 84.33 | 13.24 | 2 | 8.88 | 9.76 |
| 14:15 | 2 | 29.5 | 37 | 69,177 | 0 | 2.76 | 0.99 | 13.58 | 95.01 | 12.78 | 2 | 8.04 | 8.85 |
| 14:14 | 2 | 29.5 | 36 | 69,216 | 0 | 1.72 | 0.98 | 11.49 | 93.87 | 13.62 | 2.86 | 8.1 | 8.91 |
| 14:13 | 2 | 29.5 | 36 | 69,206 | 0 | 1.82 | 1.05 | 12.16 | 95.15 | 12.99 | 2 | 8.12 | 8.93 |
| 14:12 | 2 | 29.5 | 36 | 69,222 | 0 | 3.11 | 1.04 | 15.86 | 101.87 | 12.99 | 2.86 | 8.12 | 8.93 |
| 14:11 | 2 | 29.5 | 36 | 69,214 | 0 | 0 | 1.05 | 10.54 | 77.17 | 12.83 | 2 | 8.12 | 8.93 |
| 14:10 | 2 | 29.6 | 36 | 69,204 | 0 | 0 | 1.01 | 12.98 | 97.91 | 12.3 | 2 | 7.3 | 8.03 |
| 14:09 | 2 | 29.6 | 35 | 69,193 | 0 | 1.25 | 1.05 | 10.72 | 79.35 | 13.66 | 2.86 | 8.15 | 8.96 |
| 14:08 | 2 | 29.6 | 35 | 69,175 | 0 | 0.82 | 1.05 | 11.44 | 104.62 | 13.22 | 2.86 | 8.14 | 8.96 |
| 14:07 | 2 | 29.7 | 35 | 69,181 | 0 | 0 | 1.05 | 13.89 | 100.11 | 12.26 | 2 | 8.15 | 8.97 |
| 14:06 | 2 | 29.7 | 35 | 69,193 | 0 | 0 | 1.03 | 10.55 | 80.67 | 13.21 | 2.86 | 8.14 | 8.96 |
| 14:05 | 2 | 29.7 | 35 | 69,210 | 0 | 0 | 1.06 | 11.51 | 98.01 | 12.72 | 2 | 8.16 | 8.98 |